Regional Weather Roundup
Issued by NWS

Home | Current Version | Previous Version | Graphics & Text | Print | Product List | Glossary On
Versions: 1 2 3 4 5 6 7 8 9 10 11 12 13 14 15 16 17 18 19 20 21 22 23 24 25 26 27 28 29 30 31 32 33 34 35 36 37 38 39 40 41 42 43 44 45 46 47 48
000
ASUS45 KCYS 261910
RWRWY

WYOMING REGIONAL WEATHER ROUNDUP
NATIONAL WEATHER SERVICE CHEYENNE WY
1200 PM MST MON JAN 26 2015

NOTE:  "FAIR" INDICATES FEW OR NO CLOUDS BELOW 12,000 FEET
WITH NO SIGNIFICANT WEATHER AND/OR OBSTRUCTIONS TO VISIBILITY.

WYZ001-262000-
YELLOWSTONE NATIONAL PARK

CITY           SKY/WX    TMP DP  RH WIND       PRES   REMARKS
LK YELLOWSTONE   N/A     21  16  81 CALM      30.43F
W YELLOWSTONE  NOT AVBL

$$
WYZ002>013-054>058-071-098>099-262000-
NORTHERN WYOMING

CITY           SKY/WX    TMP DP  RH WIND       PRES   REMARKS
JACKSON        CLOUDY    25  25 100 CALM      30.45F
CODY           FAIR      37  28  70 NE5       30.20F WCI  34
GREYBULL       FAIR      30  24  78 CALM      30.23F
WORLAND        FAIR      29  23  78 CALM      30.23F
SHERIDAN       FAIR      64  31  28 CALM      30.09F
BUFFALO          N/A     66  28  24 SE8       30.15F
GILLETTE         N/A    N/A N/A N/A MISG      30.11F
HULETT           N/A    N/A N/A N/A MISG        N/A
NEWCASTLE      FAIR      55  28  35 NW7       30.15F

$$
WYZ014>020-022>026-101>103-262000-
CENTRAL WYOMING

CITY           SKY/WX    TMP DP  RH WIND       PRES   REMARKS
BIG PINEY      FAIR      36  23  59 VRB3      30.41F
PINEDALE       FAIR      34  27  75 CALM      30.42F
DUBOIS         FAIR      54  25  32 NW9       30.33F
LANDER         FAIR      41  26  55 CALM      30.27F
RIVERTON       FAIR      38  26  62 E3        30.29F
CASPER         FAIR      51  28  41 SW28G38   30.23F
DOUGLAS        FAIR      62  26  25 NW18G24   30.21F

$$
WYZ021-027>030-104>119-262000-
SOUTHERN WYOMING

CITY           SKY/WX    TMP DP  RH WIND       PRES   REMARKS
EVANSTON       FAIR      42  29  59 N3        30.39F
KEMMERER       FAIR      41  28  60 NW7       30.41F
FORT BRIDGER   FAIR      48  30  49 CALM      30.43F
ROCK SPRINGS   FAIR      47  29  49 CALM      30.39F
DIXON          FAIR      40  28  63 NW5       30.46F
RAWLINS        FAIR      50  27  40 MISG      30.39F
SARATOGA       FAIR      50  27  40 S7        30.41F
LARAMIE        FAIR      53  23  31 CALM      30.34F
CHEYENNE       FAIR      63  19  18 NW16G24   30.27F
TORRINGTON     FAIR      63  29  27 NW10      30.17F
PINE BLUFFS    FAIR      64  23  20 NW23G30   30.22F

$$


USA.gov is the U.S. government's official web portal to all federal, state and local government web resources and services.